Regional Weather Roundup
Issued by NWS

Home | Current Version | Previous Version | Graphics & Text | Print | Product List | Glossary On
Versions: 1 2 3 4 5 6 7 8 9 10 11 12 13 14 15 16 17 18 19 20 21 22 23 24 25 26 27 28 29 30 31 32 33 34 35 36 37 38 39 40 41 42 43 44 45 46 47 48 49 50
000
ASUS43 KLOT 281609
RWRIL

ILLINOIS REGIONAL WEATHER ROUNDUP
NATIONAL WEATHER SERVICE CHICAGO/ROMEOVILLE IL
1100 AM CDT SUN AUG 28 2016

NOTE: "FAIR" INDICATES FEW OR NO CLOUDS BELOW 12,000 FEET WITH NO
SIGNIFICANT WEATHER AND/OR OBSTRUCTIONS TO VISIBILITY.

* THESE STATIONS ARE NOT UNDER NWS QUALITY CONTROL. THEY ALSO MAY NOT
  REPORT WEATHER SUCH AS PRECIPITATION OR FOG.

ILZ001-002-007-009-015-016-024-281700-
NORTHWEST ILLINOIS

CITY           SKY/WX    TMP DP  RH WIND       PRES   REMARKS
MOLINE         SUNNY     83  74  74 VRB5      30.18R HX  89
STERLING*      PTSUNNY   81  75  82 E6        30.19S HX  87
SAVANNA*       SUNNY     82  72  72 E5        30.19S HX  86
$$

ILZ003-004-008-010-011-017-018-281700-
NORTH CENTRAL ILLINOIS

CITY           SKY/WX    TMP DP  RH WIND       PRES   REMARKS
ROCKFORD       MOSUNNY   81  70  69 E7        30.22S HX  84
FREEPORT*      MOSUNNY   78  71  79 E6        30.22S HX  81
ROCHELLE*      PTSUNNY   79  72  78 CALM      30.21S HX  83
DE KALB*       PTSUNNY   79  74  83 E5        30.22S HX  83
$$

ILZ005-006-012>014-019>023-281700-
NORTHEAST ILLINOIS

CITY           SKY/WX    TMP DP  RH WIND       PRES   REMARKS
CHICAGO-OHARE  CLOUDY    81  71  71 NE7       30.20S HX  85
CHICAGO-MIDWAY PTSUNNY   81  71  71 E9        30.20R HX  85
AURORA         MOSUNNY   83  74  74 NE7       30.20S HX  89
LANSING*       MOSUNNY   81  75  84 NE5       30.21R HX  86
JOLIET*        MOSUNNY   84  76  76 NE5       30.19F HX  93
WAUKEGAN       MOSUNNY   76  69  79 E7        30.22S
DUPAGE AIRPORT SUNNY     80  70  71 NE5       30.20S HX  83
KANKAKEE*      PTSUNNY   82  75  78 E3        30.21R HX  88
WHEELING       MOSUNNY   79  69  71 NE8       30.22S HX  81
MORRIS*        PTSUNNY   82  75  78 CALM      30.19S HX  89
ROMEOVILLE*    SUNNY     82  76  81 NE6       30.19S HX  89
$$

LMZ740>746-281700-
SOUTHERN LAKE MICHIGAN

STATION/POSITION SKY/WX   TEMP    WIND        PRES    VSBY  WAVE
                          AIR SEA DIR/SP/G                  HT/PER
                          (F)     (DEG/KT/KT) (MB)    (MI)  (FT/S)
SOUTHERN BUOY              73 75   10/ 10/ 12 1022.7R         1
WILMETTE HARBOR            71 71   20/  6/  6   N/A           1
HARRISON CRIB              74      20/  6/  6   N/A
BURNHAM HARBOR             77      30/  5/  8   N/A
CALUMET HARBOR             76      20/  8/ 10 1022.1R
BURNS HARBOR               76      40/ 11/ 11 1023.0R
MICHIGAN CITY              74      20/ 11/ 12   N/A
MICHIGAN CITY 6N           76 76   50/  8/ 10   N/A           1/ 2
ST. JOSEPH                 75 75  360/  8/ 10 1022.7R         1
$$

ILZ025>027-034>036-040-047-049-050-058-095>099-281700-
WEST-CENTRAL ILLINOIS

CITY           SKY/WX    TMP DP  RH WIND       PRES   REMARKS
QUINCY         PTSUNNY   75  72  90 E7        30.19R
GALESBURG*     MOSUNNY   83  74  75 CALM      30.19R HX  89
MACOMB*        CLOUDY    77  74  91 SW6       30.21R
JACKSONVILLE*  CLOUDY    84  75  74 CALM      30.18R HX  91
PITTSFIELD*    MOSUNNY   82  73  74 NW6       30.19S HX  86
$$

ILZ028>032-037-038-041>044-048-051>054-059>061-281700-
CENTRAL ILLINOIS

CITY           SKY/WX    TMP DP  RH WIND       PRES   REMARKS
PONTIAC        PTSUNNY   84  77  79 CALM      30.20S HX  93
BLOOMINGTON    PTSUNNY   82  74  76 VRB3      30.21S HX  88
DECATUR        SUNNY     84  75  74 CALM      30.20R HX  92
PEORIA         PTSUNNY   83  73  72 CALM      30.19R HX  89
LACON*         PTSUNNY   82  73  75 CALM      30.18S HX  87
LINCOLN*       SUNNY     82  74  78 CALM      30.19S HX  87
SPRINGFIELD    MOSUNNY   84  72  67 SE5       30.19R HX  89
TAYLORVILLE    MOSUNNY   84  76  78 CALM      30.20R HX  93
$$

ILZ033-039-045-046-055>057-062-063-281700-
EAST-CENTRAL ILLINOIS

CITY           SKY/WX    TMP DP  RH WIND       PRES   REMARKS
CHAMPAIGN      PTSUNNY   83  76  79 CALM      30.21R HX  91
RANTOUL*       CLOUDY    82  77  83 CALM      30.21R HX  90
MATTOON        SUNNY     85  73  67 CALM      30.18S HX  91
PARIS*         MOSUNNY   85  77  78 CALM      30.20S HX  95
$$

ILZ079-100>102-281700-
SOUTHWEST ILLINOIS

CITY           SKY/WX    TMP DP  RH WIND       PRES   REMARKS
ALTON          MOSUNNY   86  72  62 VRB5      30.18R HX  92
BELLEVILLE     SUNNY     87  73  61 S7        30.16S HX  95
CAHOKIA*       MOSUNNY   89  70  53 SE5       30.17R HX  94
SPARTA*        SUNNY     85  75  71 CALM      30.19R HX  94
$$

ILZ064>066-069>071-074>076-080>082-084>086-088>090-092>094-281700-
SOUTH-CENTRAL ILLINOIS

CITY           SKY/WX    TMP DP  RH WIND       PRES   REMARKS
CARBONDALE     SUNNY     86  76  71 E5        30.17S HX  96
CAIRO*         SUNNY     86  76  71 E5        30.16S HX  96
EFFINGHAM*     SUNNY     87  74  65 CALM      30.20S HX  95
MARION         MOSUNNY   88  75  66 NE6       30.18S HX  97
MT. VERNON     SUNNY     88  72  58 E7        30.18S HX  94
CENTRALIA*     SUNNY     88  78  72 SE6       30.17S HX 101
SALEM*         SUNNY     88  73  60 SE3       30.18S HX  95
METROPOLIS*    SUNNY     87  75  67 CALM      30.17S HX  97
$$

ILZ067-068-072-073-078-083-087-091-281700-
SOUTHEAST ILLINOIS

CITY           SKY/WX    TMP DP  RH WIND       PRES   REMARKS
LAWRENCEVILLE  MOSUNNY   87  76  69 NE5       30.19S HX  97
FLORA*         SUNNY     89  73  60 CALM      30.19S HX  97
FAIRFIELD*     SUNNY     88  74  62 CALM      30.17S HX  96
HARRISBURG*    MOSUNNY   87  76  71 E5        30.17S HX  98
ROBINSON*      MOSUNNY   86  77  75 CALM      30.19S HX  96
CARMI*         SUNNY     87  78  73 E5        30.17S HX 100
$$

ABBREVIATIONS USED IN REMARKS
   TC - TEMPERATURE IN CELSIUS
  WCI - WIND CHILL INDEX
   HX - HEAT INDEX
  VSB - VISIBILITY
$$





USA.gov is the U.S. government's official web portal to all federal, state and local government web resources and services.